Hourly Weather Rudantsi

Today, 22 April, Thursday

Time Temperature Precipitation Wind Pressure Humidity
00:00 +6°C° 0.1 mm 4 mps 738 mmHg 91%
01:00 +7°C° 0.1 mm 3 mps 738 mmHg 91%
02:00 +5°C° 0.1 mm 3 mps 738 mmHg 92%
03:00 +5°C° 0 mm 3 mps 738 mmHg 92%
04:00 +5°C° 0 mm 3 mps 738 mmHg 92%
05:00 +5°C° 0 mm 3 mps 738 mmHg 93%
06:00 +6°C° 0 mm 4 mps 738 mmHg 88%
07:00 +7°C° 0 mm 4 mps 738 mmHg 84%
08:00 +9°C° 0 mm 5 mps 738 mmHg 80%
09:00 +9°C° 0.3 mm 5 mps 739 mmHg 79%
10:00 +10°C° 0.3 mm 5 mps 739 mmHg 78%
11:00 +10°C° 0.3 mm 5 mps 739 mmHg 77%
12:00 +10°C° 0.7 mm 5 mps 739 mmHg 76%
13:00 +10°C° 0.7 mm 5 mps 739 mmHg 76%
14:00 +10°C° 0.7 mm 5 mps 739 mmHg 75%
15:00 +9°C° 1.5 mm 5 mps 739 mmHg 81%
16:00 +7°C° 1.5 mm 5 mps 739 mmHg 86%
17:00 +5°C° 1.5 mm 6 mps 739 mmHg 91%
18:00 +5°C° 1.9 mm 5 mps 739 mmHg 92%
19:00 +4°C° 1.9 mm 3 mps 740 mmHg 92%
20:00 +5°C° 1.9 mm 2 mps 741 mmHg 92%
21:00 +4°C° 0 mm 2 mps 741 mmHg 92%
22:00 +3°C° 0 mm 2 mps 741 mmHg 93%
23:00 +2°C° 0 mm 3 mps 741 mmHg 93%

Tomorrow, 23 April, Friday

Time Temperature Precipitation Wind Pressure Humidity
00:00 +2°C° 0 mm 3 mps 741 mmHg 92%
01:00 +1°C° 0 mm 3 mps 741 mmHg 92%
02:00 +1°C° 0 mm 3 mps 741 mmHg 91%
03:00 0°C° 0 mm 3 mps 741 mmHg 91%
04:00 0°C° 0 mm 3 mps 741 mmHg 91%
05:00 -1°C° 0 mm 3 mps 741 mmHg 90%
06:00 0°C° 0 mm 4 mps 742 mmHg 85%
07:00 +1°C° 0 mm 4 mps 742 mmHg 80%
08:00 +2°C° 0 mm 5 mps 742 mmHg 75%
09:00 +3°C° 0 mm 5 mps 742 mmHg 67%
10:00 +5°C° 0 mm 5 mps 743 mmHg 59%
11:00 +7°C° 0 mm 5 mps 743 mmHg 51%
12:00 +7°C° 0.1 mm 6 mps 742 mmHg 50%
13:00 +7°C° 0.1 mm 6 mps 742 mmHg 49%
14:00 +8°C° 0.1 mm 6 mps 742 mmHg 49%
15:00 +7°C° 0.2 mm 5 mps 742 mmHg 51%
16:00 +7°C° 0.2 mm 5 mps 742 mmHg 53%
17:00 +7°C° 0.2 mm 5 mps 742 mmHg 56%
18:00 +5°C° 0.1 mm 4 mps 742 mmHg 62%
19:00 +4°C° 0.1 mm 3 mps 742 mmHg 69%
20:00 +3°C° 0.1 mm 2 mps 742 mmHg 75%
21:00 +2°C° 0.1 mm 3 mps 742 mmHg 78%
22:00 +1°C° 0.1 mm 4 mps 742 mmHg 81%
23:00 +1°C° 0.1 mm 6 mps 742 mmHg 84%

Day after tomorrow, 24 April, Saturday

Time Temperature Precipitation Wind Pressure Humidity
00:00 0°C° 0 mm 5 mps 743 mmHg 85%
01:00 0°C° 0 mm 5 mps 743 mmHg 87%
02:00 -1°C° 0 mm 5 mps 744 mmHg 89%
03:00 -2°C° 0 mm 5 mps 744 mmHg 90%
04:00 -2°C° 0 mm 5 mps 744 mmHg 91%
05:00 -3°C° 0 mm 4 mps 744 mmHg 91%
06:00 -1°C° 0 mm 5 mps 744 mmHg 83%
07:00 0°C° 0 mm 5 mps 745 mmHg 74%
08:00 +1°C° 0 mm 5 mps 745 mmHg 65%
09:00 +3°C° 0.1 mm 6 mps 745 mmHg 59%
10:00 +4°C° 0.1 mm 6 mps 745 mmHg 52%
11:00 +5°C° 0.1 mm 6 mps 745 mmHg 46%
12:00 +5°C° 0 mm 6 mps 745 mmHg 45%
13:00 +7°C° 0 mm 6 mps 744 mmHg 44%
14:00 +7°C° 0 mm 6 mps 744 mmHg 43%
15:00 +8°C° 0 mm 5 mps 744 mmHg 45%
16:00 +8°C° 0 mm 5 mps 744 mmHg 47%
17:00 +8°C° 0 mm 4 mps 743 mmHg 49%
18:00 +6°C° 0 mm 4 mps 744 mmHg 56%
19:00 +5°C° 0 mm 3 mps 744 mmHg 63%
20:00 +4°C° 0 mm 2 mps 744 mmHg 70%
21:00 +4°C° 0 mm 2 mps 744 mmHg 75%
22:00 +3°C° 0 mm 3 mps 743 mmHg 80%
23:00 +3°C° 0 mm 3 mps 743 mmHg 85%

25 April, Sunday

Time Temperature Precipitation Wind Pressure Humidity
00:00 +3°C° 0.1 mm 3 mps 743 mmHg 87%
01:00 +3°C° 0.1 mm 3 mps 743 mmHg 89%
02:00 +3°C° 0.1 mm 3 mps 743 mmHg 91%
03:00 +2°C° 0 mm 3 mps 743 mmHg 91%
04:00 +1°C° 0 mm 4 mps 743 mmHg 91%
05:00 +1°C° 0 mm 4 mps 743 mmHg 92%
06:00 +1°C° 0.1 mm 4 mps 743 mmHg 92%
07:00 +1°C° 0.1 mm 4 mps 743 mmHg 92%
08:00 0°C° 0.1 mm 5 mps 743 mmHg 92%
09:00 +1°C° 0.1 mm 5 mps 743 mmHg 81%
10:00 +2°C° 0.1 mm 5 mps 744 mmHg 69%
11:00 +3°C° 0.1 mm 5 mps 744 mmHg 58%
12:00 +5°C° 0 mm 5 mps 744 mmHg 54%
13:00 +4°C° 0 mm 6 mps 744 mmHg 51%
14:00 +5°C° 0 mm 6 mps 744 mmHg 47%
15:00 +6°C° 0 mm 5 mps 744 mmHg 46%
16:00 +6°C° 0 mm 5 mps 744 mmHg 46%
17:00 +6°C° 0 mm 5 mps 744 mmHg 46%
18:00 +5°C° 0 mm 4 mps 744 mmHg 53%
19:00 +3°C° 0 mm 3 mps 744 mmHg 61%
20:00 +3°C° 0 mm 2 mps 744 mmHg 68%
21:00 +2°C° 0 mm 2 mps 744 mmHg 72%
22:00 +1°C° 0 mm 3 mps 744 mmHg 76%
23:00 0°C° 0 mm 3 mps 744 mmHg 81%

26 April, Monday

Time Temperature Precipitation Wind Pressure Humidity
00:00 0°C° 0 mm 3 mps 743 mmHg 82%
01:00 -1°C° 0 mm 3 mps 743 mmHg 83%
02:00 -1°C° 0 mm 3 mps 743 mmHg 84%
03:00 -2°C° 0 mm 3 mps 743 mmHg 86%
04:00 -2°C° 0 mm 3 mps 743 mmHg 87%
05:00 -2°C° 0 mm 3 mps 743 mmHg 89%
06:00 -1°C° 0 mm 3 mps 744 mmHg 80%
07:00 0°C° 0 mm 4 mps 744 mmHg 70%
08:00 +1°C° 0 mm 4 mps 744 mmHg 61%
09:00 +3°C° 0 mm 4 mps 744 mmHg 54%
10:00 +4°C° 0 mm 4 mps 744 mmHg 47%
11:00 +6°C° 0 mm 4 mps 744 mmHg 40%
12:00 +6°C° 0 mm 4 mps 743 mmHg 40%
13:00 +7°C° 0 mm 4 mps 743 mmHg 40%
14:00 +7°C° 0 mm 4 mps 742 mmHg 41%
15:00 +7°C° 0 mm 4 mps 742 mmHg 45%
16:00 +7°C° 0 mm 4 mps 742 mmHg 50%
17:00 +7°C° 0 mm 5 mps 742 mmHg 55%
18:00 +5°C° 0 mm 3 mps 742 mmHg 61%
19:00 +5°C° 0 mm 2 mps 742 mmHg 68%
20:00 +4°C° 0 mm 1 mps 742 mmHg 75%
21:00 +3°C° 0 mm 1 mps 742 mmHg 76%
22:00 +3°C° 0 mm 1 mps 742 mmHg 78%
23:00 +1°C° 0 mm 2 mps 742 mmHg 80%

27 April, Tuesday

Time Temperature Precipitation Wind Pressure Humidity
00:00 +1°C° 0 mm 2 mps 742 mmHg 81%
01:00 +1°C° 0 mm 2 mps 742 mmHg 82%
02:00 +1°C° 0 mm 2 mps 742 mmHg 83%
03:00 +1°C° 0 mm 2 mps 741 mmHg 83%
04:00 +1°C° 0 mm 2 mps 741 mmHg 84%
05:00 -1°C° 0 mm 2 mps 741 mmHg 84%
06:00 +1°C° 0 mm 3 mps 740 mmHg 78%
07:00 +3°C° 0 mm 3 mps 740 mmHg 72%
08:00 +5°C° 0 mm 4 mps 740 mmHg 66%
09:00 +6°C° 0 mm 4 mps 739 mmHg 61%
10:00 +8°C° 0 mm 5 mps 739 mmHg 57%
11:00 +10°C° 0 mm 5 mps 738 mmHg 52%
12:00 +10°C° 0 mm 6 mps 738 mmHg 50%
13:00 +11°C° 0 mm 6 mps 737 mmHg 49%
14:00 +13°C° 0 mm 6 mps 736 mmHg 47%
15:00 +11°C° 0 mm 6 mps 735 mmHg 52%
16:00 +11°C° 0 mm 6 mps 735 mmHg 57%
17:00 +12°C° 0 mm 5 mps 734 mmHg 61%
18:00 +10°C° 0.2 mm 5 mps 734 mmHg 70%
19:00 +10°C° 0.2 mm 4 mps 733 mmHg 79%
20:00 +9°C° 0.2 mm 3 mps 733 mmHg 88%
21:00 +9°C° 0.1 mm 3 mps 732 mmHg 89%
22:00 +8°C° 0.1 mm 4 mps 731 mmHg 90%
23:00 +8°C° 0.1 mm 4 mps 731 mmHg 92%
Show more